Regional Weather Roundup
Issued by NWS Cleveland, OH

Home | Current Version | Previous Version | Graphics & Text | Print | Product List | Glossary On
Versions: 1 2 3 4 5 6 7 8 9 10 11 12 13 14 15 16 17 18 19 20 21 22 23 24 25 26 27 28 29 30 31 32 33 34 35 36 37 38 39 40 41 42 43 44 45 46 47 48 49 50
628
ASUS41 KCLE 262000
RWRCLE
OHIO REGIONAL WEATHER ROUNDUP
NATIONAL WEATHER SERVICE WILMINGTON, OH
400 PM EDT SAT MAY 26 2018

NOTE: "FAIR" INDICATES FEW OR NO CLOUDS BELOW 12,000 FEET WITH NO
SIGNIFICANT WEATHER AND/OR OBSTRUCTIONS TO VISIBILITY.

OHZ001>008-015>018-024>027-034-035-043-044-262100-
   NORTHWEST OHIO

CITY           SKY/WX    TMP DP  RH WIND       PRES   REMARKS
DEFIANCE       FAIR      84  66  54 W7        29.77F
FINDLAY        LGT RAIN  72  69  90 NW12      29.79R FOG
TOLEDO EXPRESS CLOUDY    85  67  54 SW9       29.77F
TOLEDO EXEC    FAIR      80  71  74 E7        29.79S
LIMA           RAIN      70  69  97 NW9       29.82S FOG
$$

OHZ009>014-019>023-028>033-038-089-262100-
   NORTHEAST OHIO

CITY           SKY/WX    TMP DP  RH WIND       PRES   REMARKS
CLE-HOPKINS    PTSUNNY   80  66  62 VRB6      29.82F
CLE-LAKEFRONT  FAIR      75  65  70 N7        29.79F
CUY CO. ARPT   PTSUNNY   81  68  65 S7        29.83F
LORAIN-ELYRIA  FAIR      80  64  58 VRB6      29.80F
ASHTABULA      FAIR      80  66  62 SW8       29.83F
AKRON-CANTON   TSTM      75  66  73 SE8       29.84F
WOOSTER        NOT AVBL
MANSFIELD      FAIR      84  64  50 S9        29.81F
YOUNGSTOWN     PTSUNNY   77  63  61 S6        29.85F
$$

OHZ042-051>053-060>062-070>072-077>081-262100-
  SOUTHWEST OHIO

CITY           SKY/WX    TMP DP  RH WIND       PRES   REMARKS
CINC-COVINGTON PTSUNNY   82  67  60 SW12G18   29.81F
CINC-LUNKEN    PTSUNNY   83  75  77 S6        29.79F HX  90
HAMILTON       TSTM      70  69  97 CALM      29.83R FOG
DAYTON         NOT AVBL
WRIGHT-PAT AFB NOT AVBL
DAYTON GENERAL CLOUDY    75  67  76 NW12G20   29.81S
WILMINGTON     FAIR      83  69  62 S14       29.81F
$$

OHZ036-037-039>041-045>050-054>059-063>069-073>076-082>088-262100-
  CENTRAL AND SOUTHEAST OHIO

CITY           SKY/WX    TMP DP  RH WIND       PRES   REMARKS
COLUMBUS       PTSUNNY   83  63  50 SW12      29.80F
OSU AIRPORT    FAIR      85  66  53 VRB7      29.80F
BOLTON FIELD   MOSUNNY   84  66  54 SW9G24    29.81F
RICKENBACK AFB NOT AVBL
NEWARK         FAIR      86  66  51 S10       29.80F
MARION         FAIR      85  63  47 SW12      29.80F
LANCASTER      FAIR      83  68  60 SW8       29.82F
ZANESVILLE     FAIR      74  69  85 SE9       29.85S
NEW PHILLY     PTSUNNY   84  65  52 VRB3      29.83F
$$




USA.gov is the U.S. government's official web portal to all federal, state and local government web resources and services.